Tracking 35237 objects as of 6-Sep-2026
HD Live streaming from Space Station
objects crossing your sky now

STARLINK-3397

Track STARLINK-3397 now!
10-day predictions
STARLINK-3397 is classified as:


NORAD ID: 51115
Int'l Code: 2022-005M
Launch date: January 19, 2022
Source: United States (US)
Launch site: AIR FORCE EASTERN TEST RANGE (AFETR)
Your satellite tracking list
Your tracking list is empty




NASA's NSSDC Master Catalog

Two Line Element Set (TLE):
1 51115U 22005M   26249.57044697  .00000566  00000-0  28542-4 0  9999
2 51115  53.1606 190.8019 0001401  88.0759 272.0403 15.33544874256260
Source of the keplerian elements: AFSPC